Regional Weather Roundup
Issued by NWS

Home | Current Version | Previous Version | Graphics & Text | Print | Product List | Glossary On
Versions: 1 2 3 4 5 6 7 8 9 10 11 12 13 14 15 16 17 18 19 20 21 22 23 24 25 26 27 28 29 30 31 32 33 34 35 36 37 38 39 40 41 42 43 44 45 46 47 48 49 50
000
ASUS45 KPSR 242210
RWRAZ

ARIZONA REGIONAL HOURLY WEATHER ROUNDUP
NATIONAL WEATHER SERVICE PHOENIX AZ
300 PM MST FRI OCT 24 2014

NOTE: FAIR INDICATES FEW OR NO CLOUDS BELOW 12,000 FEET WITH NO
SIGNIFICANT WEATHER AND/OR OBSTRUCTIONS TO VISIBILITY.

AZZ001>003-036-242300-
NORTHWEST ARIZONA

CITY           SKY/WX    TMP DP  RH WIND       PRES   REMARKS
BULLHEAD CITY  SUNNY     91  41  17 SW7       29.95F
KINGMAN        SUNNY     84  40  21 W5        30.11F
$$

AZZ004>008-015-016-018-242300-
NORTH CENTRAL ARIZONA

CITY           SKY/WX    TMP DP  RH WIND       PRES   REMARKS
GRAND CANYON   SUNNY     74  23  15 SW8       30.31F
PRESCOTT       SUNNY     81  36  19 VRB3      30.21F
FLAGSTAFF      SUNNY     71  24  17 SW12      30.35S
PAYSON         SUNNY     77  37  24 SW5       30.25F
PAGE           SUNNY     76  33  21 NE5       30.18F
$$

AZZ009>014-017-242300-
NORTHEAST ARIZONA

CITY           SKY/WX    TMP DP  RH WIND       PRES   REMARKS
WINSLOW        SUNNY     83  34  17 W3        30.20F
SAINT JOHNS    SUNNY     78  36  21 NW6       30.25F
WINDOW ROCK    SUNNY     77  25  14 VRB6      30.32F
SHOW LOW       SUNNY     73  36  25 SW7       30.32F
$$

AZZ023-242300-
GREATER PHOENIX AREA

CITY           SKY/WX    TMP DP  RH WIND       PRES   REMARKS
PHOENIX        SUNNY     95  46  18 CALM      29.95F
BUCKEYE          N/A     91  46  21 SE5       29.96F
GLENDALE       SUNNY     93  48  21 CALM      29.97F
LUKE AFB       SUNNY     93  54  26 CALM      29.96F
DEER VALLEY    SUNNY     91  43  18 VRB3      29.97F
SCOTTSDALE     SUNNY     93  47  20 SW5       29.99F
MESA-FALCON    SUNNY     93  48  21 SE5       29.97
MESA-GATEWAY   SUNNY     91  50  24 SW3       30.00F
CHANDLER       SUNNY     93  48  21 CALM      29.97F
$$

AZZ027-028-242300-
SOUTHWEST MARICOPA COUNTY AND PINAL COUNTY

CITY           SKY/WX    TMP DP  RH WIND       PRES   REMARKS
CASA GRANDE    SUNNY     91  46  21 CALM      29.99S
$$

AZZ503-504-507>509-242300-
SOUTHEAST ARIZONA

CITY           SKY/WX    TMP DP  RH WIND       PRES   REMARKS
TUCSON         SUNNY     93  43  17 NW9       30.05F
DAVIS-MONTHAN  SUNNY     91  42  18 W7        30.03F
RYAN FIELD       N/A     93  45  18 CALM      30.04F
NOGALES        SUNNY     86  43  22 W7        30.13F
SIERRA VISTA   MOSUNNY   84  43  23 NE7       30.19S
DOUGLAS        SUNNY     85  43  22 NW6       30.16S
SAFFORD        SUNNY     85  44  23 SW3       30.09F
$$

AZZ020-021-025-026-031-242300-
SOUTHWEST ARIZONA

CITY           SKY/WX    TMP DP  RH WIND       PRES   REMARKS
YUMA           SUNNY     96  39  13 S5        29.89F
$$

CAZ031-033-041-043-047-048-061-242300-
SOUTHERN CALIFORNIA

CITY           SKY/WX    TMP DP  RH WIND       PRES   REMARKS
DOWNTOWN L.A.  SUNNY     86  56  35 VRB5      29.92S
L.A. AIRPORT   MOSUNNY   76  62  62 W9        29.93F
SAN DIEGO      SUNNY     81  58  45 NW7       29.93F
BURBANK        SUNNY     89  32  13 S12       29.93F
ONTARIO        SUNNY     92  34  13 SW13      29.93F
RIVERSIDE      SUNNY     92  33  12 W12G18    29.92F
PALM SPRINGS   SUNNY     95  43  16 E10       29.92F
EL CENTRO NAS  MOSUNNY   95  44  17 E6        29.87F
IMPERIAL       SUNNY     95  47  19 VRB5      29.87F
BLYTHE         SUNNY     95  45  17 S7        29.91F
NEEDLES        SUNNY     94  39  14 E6        29.94F
$$

NVZ020-UTZ003-242300-
SOUTHERN NEVADA-UTAH

CITY           SKY/WX    TMP DP  RH WIND       PRES   REMARKS
LAS VEGAS      SUNNY     85  39  19 VRB3      29.98F
SALT LAKE CITY SUNNY     79  28  15 S15       30.09F
$$

NMZ009-TXZ055-242300-
NEW MEXICO-WEST TEXAS

CITY           SKY/WX    TMP DP  RH WIND       PRES   REMARKS
ALBUQUERQUE    SUNNY     77  31  18 SW6       30.25F
EL PASO        SUNNY     83  43  24 CALM      30.16F
$$


........................KEY........................
SKY/WX - SKY CONDITION/WEATHER
TMP    - TEMPERATURE IN FAHRENHEIT
DP     - DEW POINT IN FAHRENHEIT
RH     - RELATIVE HUMIDITY IN PERCENT
WIND   - DIRECTION AND SPEED IN MILES PER HOUR (MPH)
VRB    - VARIABLE WIND DIRECTION
PRES   - MEAN SEA LEVEL PRESSURE IN INCHES OF MERCURY
         F - FALLING PRESSURE   R - RISING PRESSURE
         S - STEADY PRESSURE
VSB    - VISIBILITY IN MILES
HX     - HEAT INDEX IN FAHRENHEIT
WCI    - WIND CHILL INDEX IN FAHRENHEIT
TC     - TEMPERATURE IN CELSIUS WHICH IS ALSO KNOWN AS
         TEMPERATURE IN CENTIGRADE
AFB    - AIR FORCE BASE
         LUKE AFB IS LUKE AIR FORCE BASE
         DAVIS-MONTHAN IS DAVIS-MONTHAN AIR FORCE BASE
NAS    - NAVAL AIR STATION
         EL CENTRO NAS IS EL CENTRO NAVAL AIR STATION
N/A    - NOT AVAILABLE



USA.gov is the U.S. government's official web portal to all federal, state and local government web resources and services.